Hourly Weather Barnowiec

Today, 8 May, Saturday

Time Temperature Precipitation Wind Pressure Humidity
00:00 +1°C° 0 mm 3 mps 746 mmHg 96%
01:00 +2°C° 0 mm 2 mps 747 mmHg 96%
02:00 +1°C° 0 mm 3 mps 747 mmHg 97%
03:00 +1°C° 0 mm 3 mps 747 mmHg 97%
04:00 0°C° 0 mm 3 mps 747 mmHg 97%
05:00 +1°C° 0 mm 3 mps 748 mmHg 93%
06:00 +3°C° 0 mm 4 mps 748 mmHg 89%
07:00 +3°C° 0 mm 5 mps 748 mmHg 85%
08:00 +3°C° 0.1 mm 5 mps 749 mmHg 79%
09:00 +5°C° 0.1 mm 5 mps 749 mmHg 74%
10:00 +6°C° 0.1 mm 5 mps 749 mmHg 68%
11:00 +5°C° 0.1 mm 6 mps 749 mmHg 64%
12:00 +7°C° 0.1 mm 6 mps 749 mmHg 61%
13:00 +8°C° 0.1 mm 6 mps 750 mmHg 57%
14:00 +8°C° 0 mm 6 mps 750 mmHg 53%
15:00 +8°C° 0 mm 6 mps 750 mmHg 49%
16:00 +9°C° 0 mm 5 mps 750 mmHg 45%
17:00 +7°C° 0 mm 4 mps 750 mmHg 52%
18:00 +7°C° 0 mm 3 mps 750 mmHg 59%
19:00 +7°C° 0 mm 1 mps 750 mmHg 66%
20:00 +6°C° 0 mm 1 mps 750 mmHg 68%
21:00 +5°C° 0 mm 2 mps 750 mmHg 69%
22:00 +4°C° 0 mm 2 mps 751 mmHg 70%
23:00 +4°C° 0 mm 2 mps 750 mmHg 69%

Tomorrow, 9 May, Sunday

Time Temperature Precipitation Wind Pressure Humidity
00:00 +3°C° 0 mm 3 mps 750 mmHg 68%
01:00 +3°C° 0 mm 3 mps 750 mmHg 68%
02:00 +3°C° 0 mm 4 mps 750 mmHg 69%
03:00 +4°C° 0 mm 4 mps 749 mmHg 69%
04:00 +4°C° 0 mm 4 mps 749 mmHg 70%
05:00 +3°C° 0.1 mm 5 mps 749 mmHg 72%
06:00 +5°C° 0.1 mm 5 mps 748 mmHg 74%
07:00 +5°C° 0.1 mm 5 mps 748 mmHg 77%
08:00 +6°C° 0.1 mm 5 mps 748 mmHg 75%
09:00 +7°C° 0.1 mm 6 mps 748 mmHg 73%
10:00 +8°C° 0.1 mm 6 mps 748 mmHg 72%
11:00 +11°C° 0 mm 6 mps 748 mmHg 65%
12:00 +15°C° 0 mm 6 mps 747 mmHg 57%
13:00 +19°C° 0 mm 6 mps 747 mmHg 50%
14:00 +20°C° 0 mm 6 mps 747 mmHg 51%
15:00 +20°C° 0 mm 5 mps 747 mmHg 51%
16:00 +21°C° 0 mm 5 mps 747 mmHg 52%
17:00 +19°C° 0 mm 5 mps 747 mmHg 59%
18:00 +17°C° 0 mm 5 mps 747 mmHg 66%
19:00 +16°C° 0 mm 5 mps 747 mmHg 73%
20:00 +15°C° 0 mm 4 mps 747 mmHg 78%
21:00 +14°C° 0 mm 4 mps 747 mmHg 83%
22:00 +13°C° 0 mm 4 mps 747 mmHg 88%
23:00 +12°C° 0 mm 4 mps 747 mmHg 88%

Day after tomorrow, 10 May, Monday

Time Temperature Precipitation Wind Pressure Humidity
00:00 +12°C° 0 mm 4 mps 747 mmHg 87%
01:00 +12°C° 0 mm 4 mps 747 mmHg 87%
02:00 +10°C° 0 mm 5 mps 747 mmHg 86%
03:00 +10°C° 0 mm 5 mps 747 mmHg 85%
04:00 +10°C° 0 mm 5 mps 747 mmHg 83%
05:00 +12°C° 0 mm 5 mps 747 mmHg 76%
06:00 +13°C° 0 mm 6 mps 747 mmHg 69%
07:00 +14°C° 0 mm 6 mps 747 mmHg 62%
08:00 +16°C° 0 mm 6 mps 746 mmHg 56%
09:00 +18°C° 0 mm 7 mps 746 mmHg 50%
10:00 +21°C° 0 mm 7 mps 746 mmHg 45%
11:00 +22°C° 0 mm 7 mps 746 mmHg 44%
12:00 +23°C° 0 mm 8 mps 746 mmHg 44%
13:00 +24°C° 0 mm 8 mps 746 mmHg 43%
14:00 +23°C° 0 mm 7 mps 746 mmHg 46%
15:00 +23°C° 0 mm 7 mps 746 mmHg 50%
16:00 +23°C° 0 mm 7 mps 746 mmHg 53%
17:00 +21°C° 0 mm 6 mps 746 mmHg 59%
18:00 +20°C° 0 mm 4 mps 746 mmHg 65%
19:00 +19°C° 0 mm 3 mps 746 mmHg 71%
20:00 +18°C° 0 mm 3 mps 746 mmHg 78%
21:00 +17°C° 0 mm 3 mps 746 mmHg 84%
22:00 +14°C° 0 mm 3 mps 746 mmHg 90%
23:00 +14°C° 0 mm 3 mps 746 mmHg 91%

11 May, Tuesday

Time Temperature Precipitation Wind Pressure Humidity
00:00 +14°C° 0 mm 2 mps 746 mmHg 93%
01:00 +14°C° 0 mm 2 mps 746 mmHg 94%
02:00 +13°C° 0 mm 3 mps 746 mmHg 94%
03:00 +13°C° 0 mm 3 mps 746 mmHg 94%
04:00 +12°C° 0 mm 3 mps 746 mmHg 94%
05:00 +14°C° 0 mm 4 mps 746 mmHg 88%
06:00 +15°C° 0 mm 4 mps 746 mmHg 81%
07:00 +16°C° 0 mm 5 mps 745 mmHg 74%
08:00 +19°C° 0 mm 5 mps 745 mmHg 67%
09:00 +21°C° 0 mm 5 mps 745 mmHg 60%
10:00 +23°C° 0 mm 6 mps 745 mmHg 53%
11:00 +23°C° 0 mm 6 mps 744 mmHg 52%
12:00 +24°C° 0 mm 6 mps 744 mmHg 50%
13:00 +26°C° 0 mm 7 mps 744 mmHg 49%
14:00 +26°C° 0 mm 6 mps 744 mmHg 51%
15:00 +26°C° 0 mm 6 mps 743 mmHg 52%
16:00 +26°C° 0 mm 6 mps 743 mmHg 54%
17:00 +25°C° 0 mm 5 mps 743 mmHg 59%
18:00 +23°C° 0 mm 4 mps 743 mmHg 65%
19:00 +21°C° 0 mm 4 mps 743 mmHg 70%
20:00 +20°C° 0 mm 4 mps 743 mmHg 76%
21:00 +19°C° 0 mm 4 mps 744 mmHg 81%
22:00 +18°C° 0 mm 4 mps 744 mmHg 86%
23:00 +18°C° 0 mm 4 mps 744 mmHg 85%

12 May, Wednesday

Time Temperature Precipitation Wind Pressure Humidity
00:00 +17°C° 0 mm 4 mps 744 mmHg 85%
01:00 +16°C° 0 mm 5 mps 744 mmHg 84%
02:00 +15°C° 0 mm 5 mps 744 mmHg 83%
03:00 +14°C° 0 mm 5 mps 744 mmHg 81%
04:00 +14°C° 0 mm 5 mps 744 mmHg 80%
05:00 +14°C° 0 mm 5 mps 744 mmHg 75%
06:00 +15°C° 0 mm 6 mps 744 mmHg 70%
07:00 +16°C° 0 mm 6 mps 743 mmHg 65%
08:00 +17°C° 0 mm 6 mps 743 mmHg 60%
09:00 +20°C° 0 mm 6 mps 744 mmHg 55%
10:00 +21°C° 0 mm 6 mps 744 mmHg 50%
11:00 +22°C° 0 mm 6 mps 744 mmHg 48%
12:00 +23°C° 0 mm 6 mps 744 mmHg 47%
13:00 +24°C° 0 mm 6 mps 744 mmHg 45%
14:00 +24°C° 0 mm 6 mps 744 mmHg 46%
15:00 +24°C° 0 mm 6 mps 743 mmHg 48%
16:00 +24°C° 0 mm 6 mps 743 mmHg 49%
17:00 +22°C° 0 mm 6 mps 744 mmHg 54%
18:00 +21°C° 0 mm 5 mps 744 mmHg 59%
19:00 +19°C° 0 mm 5 mps 744 mmHg 64%
20:00 +18°C° 0 mm 4 mps 744 mmHg 68%
21:00 +17°C° 0 mm 4 mps 745 mmHg 71%
22:00 +14°C° 0 mm 3 mps 745 mmHg 75%
23:00 +14°C° 0 mm 3 mps 745 mmHg 77%

13 May, Thursday

Time Temperature Precipitation Wind Pressure Humidity
00:00 +13°C° 0 mm 3 mps 745 mmHg 80%
01:00 +13°C° 0 mm 4 mps 745 mmHg 83%
02:00 +12°C° 0 mm 4 mps 745 mmHg 83%
03:00 +11°C° 0 mm 4 mps 745 mmHg 83%
04:00 +10°C° 0 mm 4 mps 745 mmHg 83%
05:00 +11°C° 0 mm 4 mps 745 mmHg 77%
06:00 +12°C° 0 mm 4 mps 745 mmHg 72%
07:00 +13°C° 0 mm 4 mps 745 mmHg 67%
08:00 +14°C° 0 mm 4 mps 745 mmHg 61%
09:00 +17°C° 0 mm 4 mps 745 mmHg 54%
10:00 +18°C° 0 mm 4 mps 745 mmHg 48%
11:00 +18°C° 0 mm 4 mps 745 mmHg 47%
12:00 +19°C° 0 mm 4 mps 744 mmHg 47%
13:00 +20°C° 0 mm 4 mps 744 mmHg 46%
14:00 +19°C° 0 mm 4 mps 744 mmHg 48%
15:00 +18°C° 0 mm 4 mps 744 mmHg 51%
16:00 +17°C° 0 mm 4 mps 744 mmHg 53%
17:00 +16°C° 0 mm 3 mps 744 mmHg 58%
18:00 +15°C° 0 mm 2 mps 743 mmHg 63%
19:00 +14°C° 0 mm 2 mps 743 mmHg 68%
20:00 +13°C° 0 mm 1 mps 743 mmHg 71%
21:00 +13°C° 0 mm 1 mps 743 mmHg 74%
22:00 +12°C° 0 mm 1 mps 743 mmHg 77%
23:00 +11°C° 0 mm 1 mps 743 mmHg 78%
Show more